DAL1007 KDCA-KATL

Flight info

Callsign DAL1007
Flight time 1h 24m
Altitude 36000
Route CLTCH3 FLASK OZZZI2
Aircraft A320/M-SDE3FGHIRWY/LB1

Departure

Time 2026-05-03 20:15
Airport Ronald Reagan Washington National Airport (KDCA)

Arrival

Time 2026-05-03 21:39
Airport Hartsfield Jackson Atlanta International Airport (KATL)
Time Latitude Longitude Altitude Speed Heading
2026-05-03 20:15 38.96306 -77.14885 6444 ft 251 kts 307°
2026-05-03 20:15 38.97024 -77.16544 7166 ft 252 kts 295°
2026-05-03 20:15 38.97607 -77.18528 7968 ft 255 kts 283°
2026-05-03 20:15 38.97833 -77.20809 8797 ft 259 kts 280°
2026-05-03 20:16 38.98038 -77.22804 9562 ft 261 kts 281°
2026-05-03 20:16 38.98114 -77.25137 10394 ft 268 kts 267°
2026-05-03 20:16 38.97662 -77.27293 11109 ft 277 kts 250°
2026-05-03 20:16 38.96615 -77.29367 11465 ft 305 kts 231°
2026-05-03 20:17 38.94963 -77.31047 11837 ft 327 kts 220°
2026-05-03 20:17 38.93020 -77.32773 12565 ft 332 kts 220°
2026-05-03 20:17 38.91103 -77.34476 13347 ft 335 kts 220°
2026-05-03 20:17 38.89179 -77.36195 14105 ft 337 kts 220°
2026-05-03 20:18 38.87257 -77.37927 14805 ft 339 kts 221°
2026-05-03 20:18 38.85329 -77.39673 15503 ft 341 kts 221°
2026-05-03 20:18 38.83385 -77.41437 16239 ft 342 kts 221°
2026-05-03 20:18 38.81435 -77.43205 16959 ft 344 kts 221°
2026-05-03 20:19 38.79480 -77.44976 17664 ft 346 kts 221°
2026-05-03 20:19 38.77508 -77.46762 18351 ft 347 kts 221°
2026-05-03 20:19 38.75530 -77.48550 18955 ft 350 kts 221°
2026-05-03 20:19 38.73566 -77.50399 19513 ft 349 kts 226°
2026-05-03 20:20 38.71849 -77.52579 20077 ft 347 kts 233°
2026-05-03 20:20 38.70221 -77.54874 20648 ft 349 kts 234°
2026-05-03 20:20 38.68584 -77.57183 21217 ft 352 kts 234°
2026-05-03 20:20 38.66929 -77.59515 21790 ft 355 kts 234°
2026-05-03 20:21 38.65262 -77.61858 22340 ft 358 kts 234°
2026-05-03 20:21 38.63576 -77.64219 22891 ft 361 kts 234°
2026-05-03 20:21 38.61877 -77.66596 23434 ft 364 kts 235°
2026-05-03 20:21 38.60165 -77.68991 23898 ft 367 kts 235°
2026-05-03 20:22 38.58437 -77.71407 24371 ft 369 kts 235°
2026-05-03 20:22 38.56699 -77.73832 24840 ft 370 kts 235°
2026-05-03 20:22 38.54957 -77.76260 25292 ft 372 kts 235°
2026-05-03 20:22 38.53206 -77.78698 25750 ft 373 kts 236°
2026-05-03 20:23 38.51451 -77.81143 26190 ft 374 kts 236°
2026-05-03 20:23 38.49698 -77.83605 26603 ft 375 kts 236°
2026-05-03 20:23 38.47945 -77.86076 27041 ft 376 kts 236°
2026-05-03 20:23 38.46189 -77.88555 27462 ft 377 kts 236°
2026-05-03 20:24 38.44478 -77.91087 27873 ft 374 kts 241°
2026-05-03 20:24 38.42980 -77.93786 28281 ft 373 kts 243°
2026-05-03 20:24 38.41485 -77.96500 28680 ft 374 kts 243°
2026-05-03 20:24 38.39983 -77.99213 29062 ft 376 kts 242°
2026-05-03 20:25 38.38488 -78.01903 29431 ft 377 kts 242°
2026-05-03 20:25 38.36970 -78.04632 29807 ft 378 kts 242°
2026-05-03 20:25 38.35449 -78.07368 30164 ft 379 kts 242°
2026-05-03 20:25 38.33922 -78.10111 30445 ft 380 kts 242°
2026-05-03 20:26 38.32391 -78.12864 30708 ft 382 kts 242°
2026-05-03 20:26 38.30853 -78.15631 30976 ft 383 kts 242°
2026-05-03 20:26 38.29310 -78.18406 31232 ft 385 kts 242°
2026-05-03 20:26 38.27761 -78.21184 31475 ft 386 kts 242°
2026-05-03 20:27 38.26204 -78.23967 31812 ft 385 kts 242°
2026-05-03 20:27 38.24653 -78.26735 32180 ft 383 kts 242°
2026-05-03 20:27 38.23108 -78.29493 32543 ft 382 kts 242°
2026-05-03 20:27 38.21569 -78.32236 32903 ft 381 kts 242°
2026-05-03 20:28 38.20035 -78.34975 33256 ft 380 kts 242°
2026-05-03 20:28 38.18506 -78.37705 33624 ft 378 kts 243°
2026-05-03 20:28 38.16979 -78.40417 33988 ft 377 kts 242°
2026-05-03 20:28 38.15416 -78.43103 34296 ft 377 kts 241°
2026-05-03 20:29 38.13829 -78.45761 34554 ft 378 kts 240°
2026-05-03 20:29 38.12228 -78.48411 34781 ft 378 kts 240°
2026-05-03 20:29 38.10622 -78.51060 35013 ft 379 kts 240°
2026-05-03 20:29 38.09018 -78.53712 35239 ft 379 kts 240°
2026-05-03 20:30 38.07419 -78.56364 35461 ft 379 kts 240°
2026-05-03 20:30 38.05822 -78.59024 35669 ft 379 kts 240°
2026-05-03 20:30 38.04221 -78.61691 35869 ft 380 kts 240°
2026-05-03 20:30 38.02621 -78.64357 36026 ft 380 kts 239°
2026-05-03 20:31 38.01026 -78.67011 36065 ft 377 kts 239°
2026-05-03 20:31 37.97863 -78.72267 36064 ft 374 kts 239°
2026-05-03 20:32 37.94715 -78.77502 36075 ft 373 kts 239°
2026-05-03 20:32 37.91565 -78.82719 36074 ft 373 kts 239°
2026-05-03 20:33 37.88432 -78.87896 36074 ft 372 kts 239°
2026-05-03 20:33 37.85288 -78.93097 36071 ft 372 kts 239°
2026-05-03 20:34 37.82143 -78.98294 36065 ft 372 kts 239°
2026-05-03 20:34 37.78991 -79.03478 36062 ft 371 kts 239°
2026-05-03 20:35 37.75843 -79.08647 36060 ft 371 kts 239°
2026-05-03 20:35 37.72692 -79.13811 36060 ft 371 kts 239°
2026-05-03 20:36 37.69542 -79.18970 36059 ft 370 kts 239°
2026-05-03 20:36 37.66426 -79.24148 36061 ft 370 kts 240°
2026-05-03 20:37 37.63363 -79.29349 36067 ft 369 kts 240°
2026-05-03 20:37 37.60299 -79.34543 36075 ft 369 kts 240°
2026-05-03 20:38 37.57219 -79.39718 36080 ft 369 kts 240°
2026-05-03 20:38 37.54131 -79.44890 36090 ft 369 kts 240°
2026-05-03 20:39 37.51053 -79.50059 36095 ft 369 kts 240°
2026-05-03 20:39 37.47964 -79.55236 36103 ft 369 kts 240°
2026-05-03 20:40 37.44880 -79.60393 36107 ft 369 kts 240°
2026-05-03 20:40 37.41797 -79.65544 36104 ft 368 kts 240°
2026-05-03 20:41 37.38712 -79.70684 36103 ft 368 kts 240°
2026-05-03 20:41 37.35632 -79.75809 36107 ft 367 kts 240°
2026-05-03 20:42 37.32553 -79.80924 36101 ft 367 kts 239°
2026-05-03 20:42 37.29470 -79.86033 36102 ft 367 kts 239°
2026-05-03 20:43 37.26392 -79.91131 36103 ft 366 kts 239°
2026-05-03 20:43 37.23311 -79.96229 36102 ft 366 kts 239°
2026-05-03 20:44 37.20230 -80.01317 36102 ft 366 kts 239°
2026-05-03 20:44 37.17143 -80.06400 36102 ft 367 kts 239°
2026-05-03 20:45 37.14053 -80.11483 36101 ft 367 kts 239°
2026-05-03 20:45 37.10960 -80.16560 36111 ft 366 kts 239°
2026-05-03 20:46 37.07891 -80.21602 36101 ft 366 kts 239°
2026-05-03 20:46 37.04800 -80.26679 36107 ft 366 kts 239°
2026-05-03 20:47 37.01656 -80.31759 36111 ft 369 kts 235°
2026-05-03 20:47 36.98089 -80.36365 36100 ft 371 kts 233°
2026-05-03 20:48 36.94458 -80.41007 36097 ft 371 kts 233°
2026-05-03 20:48 36.90846 -80.45623 36080 ft 371 kts 233°
2026-05-03 20:49 36.87261 -80.50201 36081 ft 371 kts 233°
2026-05-03 20:49 36.83634 -80.54834 36084 ft 372 kts 233°
2026-05-03 20:50 36.80032 -80.59420 36080 ft 372 kts 232°
2026-05-03 20:50 36.76403 -80.64021 36078 ft 372 kts 233°
2026-05-03 20:51 36.72770 -80.68623 36073 ft 372 kts 232°
2026-05-03 20:51 36.69143 -80.73229 36071 ft 372 kts 232°
2026-05-03 20:52 36.65511 -80.77841 36072 ft 373 kts 232°
2026-05-03 20:52 36.61873 -80.82445 36071 ft 373 kts 232°
2026-05-03 20:53 36.58230 -80.87039 36069 ft 373 kts 232°
2026-05-03 20:53 36.54590 -80.91624 36070 ft 373 kts 232°
2026-05-03 20:54 36.51559 -80.95438 36064 ft 373 kts 232°
2026-05-03 20:54 36.45476 -81.03087 36082 ft 373 kts 232°
2026-05-03 20:55 36.41821 -81.07666 36092 ft 373 kts 232°
2026-05-03 20:55 36.38168 -81.12253 36103 ft 373 kts 232°
2026-05-03 20:56 36.35130 -81.16061 36102 ft 373 kts 232°
2026-05-03 20:56 36.31472 -81.20626 36106 ft 373 kts 232°
2026-05-03 20:57 36.27809 -81.25188 36107 ft 373 kts 232°
2026-05-03 20:57 36.24146 -81.29759 36107 ft 374 kts 232°
2026-05-03 20:58 36.20482 -81.34328 36102 ft 374 kts 232°
2026-05-03 20:58 36.16815 -81.38896 36087 ft 374 kts 231°
2026-05-03 20:59 36.13150 -81.43463 36078 ft 374 kts 231°
2026-05-03 20:59 36.09482 -81.48024 36071 ft 374 kts 231°
2026-05-03 21:00 36.06397 -81.51837 36076 ft 374 kts 231°
2026-05-03 21:00 36.02121 -81.57122 36084 ft 375 kts 231°
2026-05-03 21:01 35.98437 -81.61672 36090 ft 374 kts 231°
2026-05-03 21:01 35.94755 -81.66217 36092 ft 375 kts 231°
2026-05-03 21:02 35.91061 -81.70765 36106 ft 375 kts 231°
2026-05-03 21:02 35.87373 -81.75312 36099 ft 375 kts 231°
2026-05-03 21:03 35.83679 -81.79859 36100 ft 375 kts 231°
2026-05-03 21:03 35.79979 -81.84394 36098 ft 375 kts 231°
2026-05-03 21:04 35.76268 -81.88904 36088 ft 375 kts 230°
2026-05-03 21:04 35.72514 -81.93384 36078 ft 376 kts 230°
2026-05-03 21:05 35.68761 -81.97861 36081 ft 376 kts 230°
2026-05-03 21:05 35.65004 -82.02346 36080 ft 377 kts 230°
2026-05-03 21:06 35.61246 -82.06833 36081 ft 377 kts 230°
2026-05-03 21:06 35.57484 -82.11312 36083 ft 377 kts 230°
2026-05-03 21:07 35.53717 -82.15787 36082 ft 377 kts 230°
2026-05-03 21:07 35.49955 -82.20253 36073 ft 376 kts 230°
2026-05-03 21:08 35.46192 -82.24719 36071 ft 377 kts 230°
2026-05-03 21:08 35.42419 -82.29189 36080 ft 377 kts 230°
2026-05-03 21:09 35.38747 -82.33692 36078 ft 376 kts 231°
2026-05-03 21:09 35.35096 -82.38282 36076 ft 376 kts 231°
2026-05-03 21:10 35.31436 -82.42866 36077 ft 376 kts 231°
2026-05-03 21:10 35.27760 -82.47429 36078 ft 377 kts 230°
2026-05-03 21:11 35.24064 -82.51980 36078 ft 377 kts 230°
2026-05-03 21:11 35.20383 -82.56526 36076 ft 377 kts 230°
2026-05-03 21:12 35.16693 -82.61090 36079 ft 377 kts 230°
2026-05-03 21:12 35.12960 -82.65616 36082 ft 378 kts 229°
2026-05-03 21:13 35.09173 -82.70080 36086 ft 378 kts 229°
2026-05-03 21:13 35.05384 -82.74537 36081 ft 378 kts 229°
2026-05-03 21:14 35.01606 -82.79016 36092 ft 379 kts 229°
2026-05-03 21:14 34.97825 -82.83495 36091 ft 379 kts 229°
2026-05-03 21:15 34.94041 -82.87972 36082 ft 380 kts 229°
2026-05-03 21:15 34.90214 -82.92448 36075 ft 383 kts 228°
2026-05-03 21:16 34.86341 -82.96912 36075 ft 384 kts 228°
2026-05-03 21:16 34.82478 -83.01362 36078 ft 385 kts 228°
2026-05-03 21:17 34.79221 -83.05117 35938 ft 385 kts 228°
2026-05-03 21:17 34.76631 -83.08111 34589 ft 391 kts 228°
2026-05-03 21:17 34.74655 -83.10393 33368 ft 392 kts 228°
2026-05-03 21:18 34.72682 -83.12666 32249 ft 390 kts 228°
2026-05-03 21:18 34.70721 -83.14925 31222 ft 387 kts 227°
2026-05-03 21:18 34.68774 -83.17166 30246 ft 384 kts 227°
2026-05-03 21:18 34.66838 -83.19391 29161 ft 382 kts 227°
2026-05-03 21:19 34.64920 -83.21590 28162 ft 377 kts 227°
2026-05-03 21:19 34.63023 -83.23758 27218 ft 373 kts 227°
2026-05-03 21:19 34.61146 -83.25906 26313 ft 368 kts 227°
2026-05-03 21:19 34.59296 -83.28029 25440 ft 364 kts 227°
2026-05-03 21:20 34.57466 -83.30129 24609 ft 360 kts 227°
2026-05-03 21:20 34.55667 -83.32191 24036 ft 350 kts 227°
2026-05-03 21:20 34.53929 -83.34182 23536 ft 338 kts 227°
2026-05-03 21:20 34.52266 -83.36092 23035 ft 325 kts 227°
2026-05-03 21:21 34.50654 -83.37948 22595 ft 312 kts 227°
2026-05-03 21:21 34.49095 -83.39743 22182 ft 308 kts 228°
2026-05-03 21:21 34.47545 -83.41531 21762 ft 307 kts 227°
2026-05-03 21:21 34.46000 -83.43310 21346 ft 306 kts 227°
2026-05-03 21:22 34.44460 -83.45086 20943 ft 306 kts 227°
2026-05-03 21:22 34.42918 -83.46863 20527 ft 305 kts 227°
2026-05-03 21:22 34.41378 -83.48632 20117 ft 305 kts 227°
2026-05-03 21:22 34.39836 -83.50397 19713 ft 305 kts 227°
2026-05-03 21:23 34.38290 -83.52165 19316 ft 306 kts 227°
2026-05-03 21:23 34.36744 -83.53935 18902 ft 306 kts 227°
2026-05-03 21:23 34.35198 -83.55708 18504 ft 307 kts 227°
2026-05-03 21:23 34.33644 -83.57485 18056 ft 307 kts 227°
2026-05-03 21:24 34.32094 -83.59254 17644 ft 306 kts 227°
2026-05-03 21:24 34.30536 -83.61030 17146 ft 308 kts 226°
2026-05-03 21:24 34.28979 -83.62807 16742 ft 308 kts 226°
2026-05-03 21:24 34.27401 -83.64554 16349 ft 308 kts 225°
2026-05-03 21:25 34.25796 -83.66272 15955 ft 307 kts 224°
2026-05-03 21:25 34.24185 -83.67969 15571 ft 307 kts 224°
2026-05-03 21:25 34.22574 -83.69659 15201 ft 307 kts 224°
2026-05-03 21:25 34.20965 -83.71353 14815 ft 307 kts 224°
2026-05-03 21:26 34.19361 -83.73050 14426 ft 307 kts 224°
2026-05-03 21:26 34.17759 -83.74749 14047 ft 307 kts 224°
2026-05-03 21:26 34.16161 -83.76443 13632 ft 307 kts 224°
2026-05-03 21:26 34.14554 -83.78149 13235 ft 306 kts 224°
2026-05-03 21:27 34.12959 -83.79840 12832 ft 305 kts 224°
2026-05-03 21:27 34.11369 -83.81524 12450 ft 304 kts 224°
2026-05-03 21:27 34.09793 -83.83195 12072 ft 302 kts 224°
2026-05-03 21:27 34.08232 -83.84856 11983 ft 295 kts 224°
2026-05-03 21:28 34.06663 -83.86458 11914 ft 298 kts 216°
2026-05-03 21:28 34.04859 -83.87671 11662 ft 297 kts 211°
2026-05-03 21:28 34.03038 -83.88835 11412 ft 296 kts 211°
2026-05-03 21:28 34.01220 -83.89994 11173 ft 295 kts 211°
2026-05-03 21:29 33.99408 -83.91148 10923 ft 294 kts 211°
2026-05-03 21:29 33.97599 -83.92299 10680 ft 294 kts 210°
2026-05-03 21:29 33.95795 -83.93448 10441 ft 293 kts 211°
2026-05-03 21:29 33.93995 -83.94594 10202 ft 292 kts 211°
2026-05-03 21:30 33.92202 -83.95737 9959 ft 291 kts 211°
2026-05-03 21:30 33.90412 -83.96876 9820 ft 291 kts 210°
2026-05-03 21:30 33.88639 -83.97999 9683 ft 284 kts 210°
2026-05-03 21:30 33.86920 -83.99084 9550 ft 273 kts 210°
2026-05-03 21:31 33.85266 -84.00130 9418 ft 264 kts 211°
2026-05-03 21:31 33.83673 -84.01141 9287 ft 254 kts 211°
2026-05-03 21:31 33.82139 -84.02117 9151 ft 245 kts 211°
2026-05-03 21:31 33.80646 -84.03069 9031 ft 242 kts 211°
2026-05-03 21:32 33.79164 -84.04012 8896 ft 241 kts 211°
2026-05-03 21:32 33.77686 -84.04952 8666 ft 239 kts 211°
2026-05-03 21:32 33.76217 -84.05884 8371 ft 238 kts 211°
2026-05-03 21:32 33.74758 -84.06807 8072 ft 237 kts 211°
2026-05-03 21:33 33.73304 -84.07727 7768 ft 236 kts 211°
2026-05-03 21:33 33.71856 -84.08644 7479 ft 234 kts 211°
2026-05-03 21:33 33.70417 -84.09555 7177 ft 233 kts 210°
2026-05-03 21:33 33.68974 -84.10468 6896 ft 232 kts 210°
2026-05-03 21:34 33.67553 -84.11368 6566 ft 232 kts 210°
2026-05-03 21:34 33.66195 -84.12387 6271 ft 228 kts 226°
2026-05-03 21:34 33.65281 -84.13880 5966 ft 221 kts 249°
2026-05-03 21:34 33.64932 -84.15643 5630 ft 217 kts 270°
2026-05-03 21:35 33.64941 -84.17447 5332 ft 216 kts 271°
2026-05-03 21:35 33.64947 -84.19245 4978 ft 216 kts 271°
2026-05-03 21:35 33.64949 -84.21041 4791 ft 212 kts 271°
2026-05-03 21:35 33.64949 -84.22789 4666 ft 207 kts 271°
2026-05-03 21:36 33.64948 -84.24485 4528 ft 200 kts 271°
2026-05-03 21:36 33.64948 -84.26127 4409 ft 195 kts 271°
2026-05-03 21:36 33.64949 -84.27722 4291 ft 185 kts 271°
2026-05-03 21:36 33.64939 -84.29260 3951 ft 186 kts 270°
2026-05-03 21:37 33.64918 -84.30831 3517 ft 191 kts 270°
2026-05-03 21:37 33.64901 -84.32461 3134 ft 195 kts 270°
2026-05-03 21:37 33.64913 -84.34088 2626 ft 192 kts 272°
2026-05-03 21:37 33.64927 -84.35625 2139 ft 177 kts 272°
2026-05-03 21:38 33.64932 -84.37060 1827 ft 165 kts 271°
2026-05-03 21:38 33.64938 -84.38375 1525 ft 151 kts 270°
2026-05-03 21:38 33.64933 -84.39581 1241 ft 140 kts 270°
2026-05-03 21:38 33.64946 -84.40718 1086 ft 135 kts 270°
2026-05-03 21:39 33.64953 -84.41810 1007 ft 118 kts 269°
2026-05-03 21:39 33.64955 -84.42315 1012 ft 61 kts 270°
2026-05-03 21:39 33.64930 -84.42671 1015 ft 37 kts 246°
2026-05-03 21:39 33.64816 -84.42836 1019 ft 18 kts 212°
2026-05-03 21:40 33.64715 -84.42875 1024 ft 14 kts 181°
2026-05-03 21:40 33.64623 -84.42842 1024 ft 14 kts 156°
2026-05-03 21:40 33.64578 -84.42826 1023 ft 0 kts 180°
2026-05-03 21:41 33.64567 -84.42832 1024 ft 6 kts 207°
2026-05-03 21:41 33.64547 -84.42868 1024 ft 6 kts 252°
2026-05-03 21:41 33.64542 -84.42921 1026 ft 6 kts 268°
2026-05-03 21:42 33.64543 -84.42974 1027 ft 6 kts 269°
2026-05-03 21:42 33.64541 -84.43026 1029 ft 8 kts 268°
2026-05-03 21:42 33.64539 -84.43126 1031 ft 12 kts 273°
2026-05-03 21:42 33.64541 -84.43237 1032 ft 14 kts 270°
2026-05-03 21:43 33.64542 -84.43363 1032 ft 11 kts 269°
2026-05-03 21:43 33.64483 -84.43424 1030 ft 14 kts 187°
2026-05-03 21:43 33.64383 -84.43394 1025 ft 16 kts 179°
2026-05-03 21:43 33.64260 -84.43393 1024 ft 16 kts 180°
2026-05-03 21:44 33.64196 -84.43385 1021 ft 8 kts 142°
2026-05-03 21:44 33.64188 -84.43335 1021 ft 0 kts 91°
2026-05-03 21:44 33.64188 -84.43330 1021 ft 1 kts 89°
2026-05-03 21:44 33.64188 -84.43325 1021 ft 1 kts 90°
2026-05-03 21:45 33.64188 -84.43319 1021 ft 0 kts 89°